FENGYUN 1C DEB

Satellite information

Favourite Embed

Satellite Type and Status

DEBRISIN ORBIT

Key statistics

Satellite FENGYUN 1C DEB at a glance.

Uptime

9715

Days in orbit

Revolutions

≈ 14.1

Per day

Orbit

SSO

Sun Synchronous Orbit

Inclination

99.1

Latest

Satellite identification and parameters

Extended collection of information and parameters for FENGYUN 1C DEB.

Object identification

Identified? True

Debris? True

Object name: FENGYUN 1C DEB

International designator: 1999-025BQC

Object number (NORAD): 31324

Object ID (CCSDS): 31324

Country: PEOPLES REPUBLIC OF CHINA (PRC)

Current information (Y/N): Y

RCS size: SMALL

Orbital parameters

Period: 101.789 minutes

Inclination: 99.1235 deg

SMA: 7221.496 km

Apoapsis: 879.023 km

Periapsis: 807.7 km

RAAN: 265.99 deg

Eccentricy: 0.0049382

Argument of periapsis: 310.451 deg

Mean anomaly: 49.2361 deg

Mean motion: 14.14692214 rev/day

Mean motion (dot): 0.00000521 rev/day2

B* drag term: 0.00029196 1/REarth

Two-line elements (TLE)

Creation date: Dec. 10, 2025, 11:16 p.m.

Reference frame: TEME

Reference center: EARTH

Epoch: Dec. 10, 2025, 1:28 p.m. UTC

TLE line 0: 0 FENGYUN 1C DEB

TLE line 1: 1 31324U 99025BQC 25344.56175786 .00000521 00000-0 29196-3 0 9999

TLE line 2: 2 31324 99.1235 265.9900 0049382 310.4510 49.2361 14.14692214964553

Live tracking on map

Real-time ground track for satellite FENGYUN 1C DEB.

In-orbit conjunctions

A list of the most updated potential collisions computed for object FENGYUN 1C DEB.

Target Orbit TCA Probability of collision Miss distance Type
CZ-6A DEB LEO 2024-11-17 00:51:03 0.0002849479 144.0 (m) DEBRIS
CZ-6A DEB LEO 2024-10-24 13:58:24 0.0001090892 379.0 (m) DEBRIS
H-2A R/B SSO 2024-10-19 12:34:45 0.0001844642 656.0 (m) ROCKET BODY

Associated space launch

Chinese polar orbiting meteorological satellite

FENGYUN 1C DEB was lifted into orbit during the mission ‘Long March 4B | Feng Yun 1C’, on board a Long March 4B space rocket.

The launch took place on May 10, 1999, 1:33 a.m. from Launch Complex 7.

For more information about the launch, click the button.

Launch to space Long March 4B | Feng Yun 1C
Long March 4B | Feng Yun 1C

Agency: N/A

Status: Launch Successful

Launch date: May 10, 1999, 1:33 a.m. UTC

Rocket: Long March 4B

Launch pad: Launch Complex 7

Location: Taiyuan Satellite Launch Center, People's Republic of China

...

Latest news about this satellite

There are no fresh news available about this satellite. Check back as we update our databases every day.


Newsletter sign-up

Weekly statistics, charts and insights to help you stay on top of the space industry.